[TLELIST]

  • This mailing list is a public mailing list - anyone may join or leave, at any time.
  • This mailing list is announce-only.

International Space Station (ISS) / Hubble Space Telescope (HST) / Chandra X-Ray Observatory Orbital Data via EMAIL

Privacy Policy:

Private list

Archived Messages

 

[TLELIST] Current TLEs

May 11th 2025 PDT

HST 1 20580U 90037B 25130.74678308 .00006916 00000-0 26164-3 0 9992 2 20580 28.4679 298.6268 0002745 39.7983 320.2813 15.24916582726963 ISS (ZARYA) 1 25544U 98067A 25131.32084234 .00008972 00000-0 16809-3 0 9991 2 25544 51.6374 129.6845 0002568 102.5783 282.9354 15.49465690509444 CXO 1 25867U 99040B 25132.41211790 .00000614 00000-0 00000-0 0 9999 2 25867 48.7216 131.4145 8476609 308.9568 359.8615 0.37808717 15808 ...Continue Reading

[TLELIST] Current TLEs

May 10th 2025 PDT

HST 1 20580U 90037B 25129.69964448 .00006667 00000-0 25207-3 0 9997 2 20580 28.4677 305.7208 0002729 30.1886 329.8866 15.24901556726805 ISS (ZARYA) 1 25544U 98067A 25129.52987991 .00008832 00000-0 16579-3 0 9991 2 25544 51.6373 138.5518 0002579 96.2220 12.6743 15.49431663509168 CXO 1 25867U 99040B 25132.41211790 .00000614 00000-0 00000-0 0 9999 2 25867 48.7216 131.4145 8476609 308.9568 359.8615 0.37808717 15808 ...Continue Reading

[TLELIST] Current TLEs

May 9th 2025 PDT

HST 1 20580U 90037B 25128.78338933 .00007115 00000-0 26961-3 0 9997 2 20580 28.4677 311.9280 0002659 22.0567 338.0141 15.24890481726927 ISS (ZARYA) 1 25544U 98067A 25129.18790686 .00009438 00000-0 17663-3 0 9994 2 25544 51.6342 140.2502 0002302 92.7015 267.4237 15.49425405509114 CXO 1 25867U 99040B 25129.76795735 .00000570 00000-0 00000+0 0 9999 2 25867 48.6962 131.5006 8481473 308.9436 359.8594 0.37812153 26954 ...Continue Reading

[TLELIST] Current TLEs

May 8th 2025 PDT

HST 1 20580U 90037B 25127.80167920 .00006329 00000-0 23907-3 0 9998 2 20580 28.4680 318.5778 0002536 12.1306 347.9349 15.24876424726516 ISS (ZARYA) 1 25544U 98067A 25128.22043911 .00007740 00000-0 14644-3 0 9990 2 25544 51.6344 145.0396 0002287 89.4742 270.6509 15.49406013508966 CXO 1 25867U 99040B 25129.76795735 .00000570 00000-0 00000+0 0 9999 2 25867 48.6962 131.5006 8481473 308.9436 359.8594 0.37812153 26954 ...Continue Reading

[TLELIST] Current TLEs

May 7th 2025 PDT

HST 1 20580U 90037B 25126.81996045 .00007392 00000-0 28065-3 0 9997 2 20580 28.4683 325.2271 0002330 0.9987 359.0612 15.24864454726364 ISS (ZARYA) 1 25544U 98067A 25127.18846187 .00009102 00000-0 17086-3 0 9997 2 25544 51.6346 150.1483 0002326 85.5682 274.5572 15.49388906508802 CXO 1 25867U 99040B 25129.76795735 .00000570 00000-0 00000+0 0 9999 2 25867 48.6962 131.5006 8481473 308.9436 359.8594 0.37812153 26954 ...Continue Reading

[TLELIST] Current TLEs

May 7th 2025 PDT

HST 1 20580U 90037B 25126.81996045 .00007392 00000-0 28065-3 0 9997 2 20580 28.4683 325.2271 0002330 0.9987 359.0612 15.24864454726364 ISS (ZARYA) 1 25544U 98067A 25127.18846187 .00009102 00000-0 17086-3 0 9997 2 25544 51.6346 150.1483 0002326 85.5682 274.5572 15.49388906508802 CXO 1 25867U 99040B 25129.76795735 .00000570 00000-0 00000+0 0 9999 2 25867 48.6962 131.5006 8481473 308.9436 359.8594 0.37812153 26954 ...Continue Reading

[TLELIST] Current TLEs

May 6th 2025 PDT

HST 1 20580U 90037B 25125.83823334 .00008371 00000-0 31902-3 0 9990 2 20580 28.4685 331.8770 0002222 349.9992 10.0557 15.24851170726212 ISS (ZARYA) 1 25544U 98067A 25126.17586691 .00009140 00000-0 17165-3 0 9996 2 25544 51.6365 155.1559 0002438 84.5145 23.8654 15.49368941508644 CXO 1 25867U 99040B 25127.12296567 .00000591 00000-0 00000+0 0 9999 2 25867 48.6570 131.6032 8487592 308.9148 359.7795 0.37811089 26945 ...Continue Reading

[TLELIST] Current TLEs

May 5th 2025 PDT

HST 1 20580U 90037B 25124.85649720 .00008496 00000-0 32406-3 0 9994 2 20580 28.4688 338.5262 0002176 339.4973 20.5534 15.24835573726328 ISS (ZARYA) 1 25544U 98067A 25125.18896867 .00008639 00000-0 16281-3 0 9995 2 25544 51.6348 160.0455 0002288 80.6014 279.5233 15.49349232508498 CXO 1 25867U 99040B 25127.12296567 .00000591 00000-0 00000+0 0 9999 2 25867 48.6570 131.6032 8487592 308.9148 359.7795 0.37811089 26945 ...Continue Reading

[TLELIST] Current TLEs

May 4th 2025 PDT

HST 1 20580U 90037B 25123.94020127 .00008937 00000-0 34147-3 0 9991 2 20580 28.4691 344.7322 0002137 328.9073 31.1394 15.24819748725922 ISS (ZARYA) 1 25544U 98067A 25124.17583429 .00010980 00000-0 20479-3 0 9996 2 25544 51.6364 165.0572 0002347 78.0135 27.5001 15.49334428508330 CXO 1 25867U 99040B 25124.47797547 .00000650 00000-0 00000-0 0 9995 2 25867 48.5990 131.7302 8493358 308.8609 359.7335 0.37807267 15771 ...Continue Reading

[TLELIST] Current TLEs

May 3rd 2025 PDT

HST 1 20580U 90037B 25123.02389578 .00010433 00000-0 40013-3 0 9991 2 20580 28.4692 350.9378 0002052 318.9685 41.0754 15.24803224726043 ISS (ZARYA) 1 25544U 98067A 25123.39976278 .00012717 00000-0 23598-3 0 9992 2 25544 51.6365 168.8960 0002156 81.8387 12.2253 15.49318505508217 CXO 1 25867U 99040B 25124.47797547 .00000650 00000-0 00000-0 0 9995 2 25867 48.5990 131.7302 8493358 308.8609 359.7335 0.37807267 15771 ...Continue Reading